Helicity
242 154 117 132 135 150 134 140 131 106 120 77 52 33 25 30 47 105 90 114 143 182 198 237 234 236 193 213 231 272 298 376 348 305 287 384 315 310 284 271 236 252 253
236 227 160 128 120 141 137 115 107 96 92 106 115 98 73 94 110 143 145 159 188 188 195 190 186 205 195 208 262 284 390 468 373 237 273 363 299 252 299 321 307 268 254
198 267 242 194 187 159 145 149 136 101 128 124 134 142 169 160 165 193 208 197 203 215 206 204 223 260 255 260 315 388 433 405 319 287 319 368 330 311 362 328 287 287 284
144 215 276 265 230 199 187 169 163 157 152 169 181 175 173 197 236 238 247 261 271 274 271 271 242 249 277 284 358 426 510 410 312 316 400 509 406 378 385 428 378 373 378
207 157 211 281 242 195 175 185 203 189 192 189 199 205 217 237 222 244 297 304 287 273 273 259 253 264 302 320 399 397 385 349 299 416 456 490 468 497 489 536 468 454 301
261 224 167 186 222 223 221 241 236 228 220 228 230 244 254 259 261 297 321 315 292 277 270 273 295 332 319 297 335 356 419 326 407 540 397 470 403 551 599 542 563 433 415
176 228 222 179 181 206 250 264 265 275 297 287 270 275 249 245 254 275 300 287 283 306 307 321 357 375 386 460 574 661 713 777 782 538 550 636 739 511 584 529 561 426 381
185 132 177 216 202 204 243 269 264 280 309 307 286 290 270 225 200 216 263 269 259 253 280 286 287 413 454 508 596 687 768 875 804 722 697 644 674 652 710 602 458 398 429
189 177 89 179 225 207 221 246 238 244 265 281 271 242 221 194 283 220 275 347 505 525 480 445 449 509 511 526 587 638 724 704 725 678 629 674 801 640 629 438 409 432 396
180 180 221 123 188 220 231 229 211 226 212 287 538 576 550 518 456 361 454 521 567 572 582 579 556 573 663 626 664 708 774 694 825 928 564 806 715 477 409 409 414 379 377
117 153 79 139 181 189 207 221 262 411 603 654 718 724 661 608 554 512 483 512 561 640 595 565 546 563 575 569 632 587 566 712 752 411 695 369 221 142 203 150 183 269 302
71 89 70 138 260 432 605 625 701 708 689 753 760 760 800 604 491 419 431 450 513 601 616 577 519 631 661 685 607 633 533 441 548 383 240 205 264 274 243 230 217 212 221
34 80 100 127 225 409 523 620 729 704 675 679 678 693 698 676 852 645 709 677 626 637 571 515 768 575 671 632 587 561 447 336 212 199 231 197 176 164 165 176 197 214 236
9 79 146 264 374 404 502 664 673 711 712 720 726 758 769 751 787 768 853 842 834 732 861 825 699 545 473 395 356 369 258 216 179 155 138 125 132 177 183 179 178 184 192
-7 137 229 298 439 519 617 570 719 819 689 740 819 817 777 825 841 556 545 461 513 546 461 411 438 300 220 195 128 120 124 156 144 126 125 143 159 176 190 196 189 197 201
85 195 286 369 511 621 708 865 855 850 877 788 764 621 797 723 508 519 648 384 300 167 181 230 214 204 185 171 138 128 108 112 130 146 155 169 183 185 191 188 190 200 208
131 116 114 243 439 413 583 818 1126 1108 1110 1302 637 727 469 491 458 254 269 282 257 257 251 238 220 192 173 178 192 204 180 163 171 179 175 170 173 168 171 176 181 195 219
222 214 175 184 112 166 230 313 380 585 643 477 321 266 239 206 190 206 184 223 255 269 242 239 238 224 205 196 190 188 184 183 182 155 157 166 164 154 138 139 147 161 174
277 265 201 214 204 182 176 170 159 147 164 140 158 239 225 297 260 266 273 228 194 182 172 195 200 204 206 192 190 181 180 170 162 153 140 125 110 116 114 113 109 109 109
219 227 147 111 130 158 185 175 172 196 195 187 140 120 118 161 190 189 185 176 185 182 155 171 174 176 188 193 188 177 165 154 135 126 117 111 112 105 91 83 83 95 98
144 155 161 135 121 80 68 64 69 107 139 147 144 130 120 109 131 153 171 189 186 200 210 203 175 176 164 154 146 135 122 116 111 106 113 112 109 97 89 90 88 87 81
85 102 115 133 137 147 126 109 94 94 94 102 120 168 189 120 106 121 138 142 140 154 149 161 147 135 125 129 118 112 111 120 121 121 118 111 103 91 81 77 73 73 71
106 119 133 106 113 138 169 162 129 125 128 131 120 119 123 128 125 110 119 123 105 92 99 114 104 112 107 106 105 109 120 125 128 119 113 93 73 73 72 72 67 61 55
122 125 123 123 138 148 141 138 130 137 113 100 92 90 80 80 71 79 80 87 101 94 86 82 86 95 84 99 99 93 106 108 102 111 100 76 68 64 62 55 47 44 53
121 121 121 119 109 99 98 107 112 108 107 106 101 102 103 100 102 95 92 98 114 107 91 85 95 103 113 94 88 151 123 101 78 69 70 62 55 45 44 46 53 38 25
118 126 127 121 128 125 114 107 111 103 106 106 116 118 112 116 126 117 111 123 108 98 104 105 110 108 85 89 136 93 62 58 63 65 61 52 47 45 42 31 23 34 36
Wind_Speed
20 22 27 33 37 38 37 40 45 48 49 50 49 52 49 41 42 37 37 36 36 37 37 41 43 42 45 51 55 59 60 59 68 70 62 58 43 36 37 34 29 33 41
18 22 30 32 35 38 40 39 41 43 44 47 51 48 47 48 44 41 41 39 39 40 40 42 43 43 45 45 47 54 61 63 66 68 64 55 46 42 46 43 41 38 36
18 22 25 32 36 39 40 39 38 40 38 41 43 44 42 41 43 46 45 44 44 43 44 46 46 45 46 48 50 55 54 58 61 62 67 59 53 51 51 49 43 43 40
24 24 26 30 34 36 35 35 38 40 41 41 43 45 46 42 41 44 44 44 45 46 47 49 49 48 49 51 52 52 53 56 54 60 65 62 60 56 50 50 50 47 49
27 32 34 31 31 30 33 37 36 39 39 41 41 44 44 42 46 47 45 45 46 49 51 53 52 52 51 53 55 53 52 51 53 57 59 59 57 58 55 55 54 49 47
29 33 35 38 38 38 37 37 36 39 42 41 44 46 45 46 49 49 45 44 47 49 51 53 57 59 57 56 54 52 53 55 58 57 58 62 60 59 54 51 47 54 51
35 33 37 40 43 44 44 44 44 45 43 46 48 48 49 48 48 48 48 49 49 50 51 54 55 56 57 57 56 56 61 64 65 62 65 65 62 50 42 45 52 48 53
74 46 42 42 44 47 50 52 50 49 48 47 48 49 51 50 47 47 47 49 51 53 56 56 54 52 50 50 54 57 61 60 58 52 50 50 46 44 51 43 46 49 55
83 79 55 49 49 51 52 52 52 51 51 49 51 52 50 50 51 47 45 45 45 51 57 58 55 53 49 45 48 48 47 46 45 42 39 38 39 43 45 46 52 59 68
84 85 87 73 55 54 53 53 53 55 55 52 51 54 55 54 56 48 43 43 44 45 50 51 48 44 42 42 42 41 42 44 41 39 38 45 47 44 46 47 52 63 67
92 91 86 83 77 57 56 56 55 53 49 50 49 50 49 50 52 48 44 44 43 43 43 43 41 37 37 37 33 33 35 35 38 33 39 39 42 46 48 53 53 59 71
88 88 83 81 74 63 54 55 53 53 53 52 51 55 53 51 49 47 43 40 36 36 34 32 31 30 31 31 29 24 27 28 35 42 44 46 49 56 60 63 65 66 67
80 80 79 75 71 68 60 57 54 51 53 54 53 53 52 50 44 38 34 30 27 26 26 20 25 27 28 26 26 31 32 38 39 44 50 55 59 61 67 68 68 68 70
74 73 71 69 69 67 61 56 53 51 51 50 50 48 41 41 39 31 30 21 16 24 23 24 25 26 27 29 30 34 38 41 47 52 57 63 66 68 70 71 75 77 80
67 62 60 57 55 52 50 52 47 44 40 38 42 38 32 35 35 14 17 17 17 25 17 21 26 30 34 36 37 39 42 45 53 62 66 69 71 71 73 74 77 80 87
60 52 49 46 44 44 35 28 27 21 23 24 20 17 16 7 15 5 12 18 22 17 23 29 32 36 39 43 45 47 51 57 62 61 64 67 71 75 78 81 83 85 89
57 47 39 35 37 35 34 27 19 21 20 20 22 14 15 10 12 20 19 22 23 25 33 36 37 40 41 46 51 54 57 60 60 62 67 72 75 78 81 83 84 86 89
52 51 45 34 28 27 28 24 20 19 22 18 20 22 17 21 20 25 24 25 32 37 38 40 43 44 46 50 54 56 60 62 64 68 70 73 75 79 83 84 84 87 89
48 47 41 43 33 28 26 26 24 26 26 22 25 28 32 32 34 37 38 38 39 41 42 44 46 49 52 54 57 59 62 64 65 68 70 73 76 78 80 81 83 85 90
48 46 42 41 39 38 38 34 33 32 30 32 33 34 37 37 39 42 44 44 46 47 48 48 50 53 55 57 57 59 62 65 68 69 71 73 74 75 78 80 83 85 85
46 44 43 42 42 39 36 37 37 36 36 37 39 42 43 43 43 46 49 51 51 52 53 53 52 53 54 55 58 61 63 65 67 68 70 72 74 75 74 75 79 78 78
45 45 44 44 44 44 44 43 41 39 40 42 44 46 46 46 47 49 50 50 50 51 52 52 53 54 55 57 60 61 63 64 65 67 68 70 71 71 73 74 74 74 73
48 47 47 46 46 46 46 46 45 45 46 46 47 47 48 50 49 49 51 52 51 50 51 53 54 55 56 57 58 59 61 62 62 64 66 67 69 69 69 69 69 69 67
49 49 48 48 48 49 48 48 48 49 48 48 48 49 48 48 48 49 49 51 53 51 53 54 53 54 55 56 58 58 57 57 59 60 62 65 64 63 64 64 62 60 60
51 50 50 50 50 49 49 50 50 49 50 50 50 50 50 50 51 51 51 51 53 56 56 53 53 55 56 58 57 52 55 58 59 58 56 57 58 58 56 55 54 56 57
52 52 52 52 52 52 52 51 52 52 52 52 52 53 53 53 53 54 52 54 57 56 54 56 55 57 57 54 53 56 58 57 55 54 53 53 52 52 52 53 53 51 52
Wind_Direction
176 176 178 179 177 177 180 181 184 186 188 193 195 201 205 208 210 222 228 233 241 246 247 262 264 268 274 280 283 284 283 284 287 294 299 307 303 304 307 303 294 291 293
192 185 185 185 186 187 189 188 187 190 190 194 199 204 208 215 222 229 232 239 244 248 251 259 261 270 271 271 278 283 283 284 286 290 298 301 299 300 302 301 296 295 295
225 204 200 195 194 198 201 201 200 201 202 204 207 211 217 222 226 228 233 237 241 244 247 252 257 267 268 275 280 282 281 284 286 286 295 299 296 300 305 304 297 295 296
243 235 222 214 211 209 210 212 213 211 213 213 213 216 221 227 227 228 233 239 246 251 256 259 262 265 269 277 281 283 283 285 283 285 292 291 294 298 299 299 295 295 290
252 250 235 240 239 237 225 223 224 225 226 225 228 225 226 230 232 236 246 252 258 263 266 269 269 269 272 278 283 282 283 282 285 287 287 290 289 294 290 297 295 297 294
258 249 254 255 250 244 241 239 241 235 233 238 236 236 236 237 236 238 246 259 263 266 269 275 278 277 276 278 276 276 278 278 283 282 280 286 286 292 296 294 296 295 299
274 258 258 259 254 248 251 252 247 245 249 243 245 249 245 248 249 249 250 259 268 274 278 280 282 283 283 284 288 290 292 292 289 287 290 294 295 290 301 296 302 300 301
294 281 270 261 256 256 257 254 253 254 252 253 254 252 257 258 258 255 258 264 270 275 283 286 284 284 285 285 288 292 297 298 296 295 297 301 304 301 305 304 305 305 307
292 293 287 269 265 266 262 254 255 260 260 259 264 264 259 263 271 263 264 272 278 286 291 294 294 293 292 290 290 294 301 306 316 315 315 314 315 312 311 307 305 305 305
295 294 293 292 268 264 264 263 261 264 265 268 272 277 277 275 279 273 268 273 278 287 296 300 301 299 301 301 297 295 292 301 303 312 316 320 321 317 318 314 308 304 308
295 293 293 292 288 269 268 268 266 266 265 268 272 278 281 283 285 282 278 277 277 285 294 301 306 307 308 310 310 308 303 314 317 312 319 315 319 315 319 313 316 314 310
300 296 295 292 291 286 274 274 271 268 268 271 274 278 284 283 286 286 286 283 280 282 292 300 313 320 321 324 323 330 325 321 323 317 319 317 317 309 315 315 316 317 317
306 301 297 293 288 286 279 274 271 270 268 270 272 274 279 288 296 290 292 289 289 291 301 314 328 335 337 341 337 334 331 326 324 319 318 314 315 316 315 317 318 319 318
312 306 302 298 291 285 282 279 275 274 272 271 270 274 274 287 290 291 304 293 294 313 313 337 344 340 340 337 335 338 332 329 323 320 316 315 315 319 319 320 319 319 317
321 312 308 304 304 298 293 286 282 291 283 272 281 273 277 289 290 286 310 305 313 324 326 338 339 332 326 331 334 336 335 331 324 319 317 317 318 320 320 322 321 320 317
333 322 318 314 312 311 308 310 330 310 323 316 305 294 312 326 331 8 358 332 333 334 349 344 334 329 326 328 330 329 326 324 322 324 323 323 323 322 321 321 320 319 318
353 342 340 333 320 318 318 316 304 354 15 7 338 3 354 358 7 349 355 359 346 351 347 340 335 332 331 328 328 329 327 327 328 327 325 323 323 323 322 322 322 321 320
7 5 4 347 350 338 332 335 341 340 346 342 20 5 2 6 357 6 347 355 344 344 345 337 333 333 332 330 329 328 328 329 328 327 326 326 326 325 324 324 324 323 322
4 9 2 17 7 6 4 355 5 8 15 358 358 358 355 10 357 357 1 353 348 345 341 338 335 333 331 330 330 330 330 330 330 329 329 328 327 327 326 326 326 326 324
7 12 8 9 8 6 2 354 356 360 344 344 347 344 347 350 344 341 343 346 342 339 336 334 334 334 333 333 334 333 333 332 331 330 330 330 331 331 329 328 327 327 327
1 0 1 2 4 5 5 0 358 355 352 347 344 347 345 344 343 340 341 341 340 338 336 337 338 338 338 337 336 335 334 332 332 332 333 333 333 332 332 332 330 331 331
356 357 354 354 353 354 354 354 353 351 349 349 349 350 350 348 347 346 347 346 346 344 341 340 340 340 339 338 337 336 335 335 336 336 336 335 335 335 334 334 334 335 335
352 355 353 352 353 352 352 350 348 347 347 347 347 348 350 347 347 347 344 344 345 345 344 342 342 340 341 340 341 340 338 338 339 339 338 337 335 336 337 336 337 338 339
350 352 353 353 351 350 349 348 349 350 349 348 349 348 348 347 348 348 346 344 343 345 345 343 344 343 342 342 342 341 342 343 343 341 341 337 337 338 339 340 340 341 342
347 347 347 346 347 347 346 346 347 347 346 346 345 344 344 345 344 345 344 345 343 341 342 344 344 344 344 342 343 346 346 344 342 342 343 341 340 340 342 343 344 345 347
348 347 346 346 345 345 345 344 343 343 342 342 342 342 342 342 341 341 343 342 340 340 342 343 344 343 343 345 347 345 343 344 345 346 346 344 343 344 345 346 347 349 350